Weather History for Westhampton Beach, NY

Change the Weather History Date:

Sunday, April 13, 2014

  Actual Average Record
Temperature  
Mean Temperature 46 °F -  
Max Temperature 62 °F 55 °F 69 °F (2001)
Min Temperature 32 °F 36 °F 25 °F (2005)
Degree Days  
Heating Degree Days 18    
Moisture  
Dew Point 44 °F    
Average Humidity 75    
Maximum Humidity 86    
Minimum Humidity 62    
Precipitation  
Precipitation 0.00 in - - ()
Sea Level Pressure  
Sea Level Pressure 30.18 in    
Wind  
Wind Speed 7 mph (South)    
Max Wind Speed 18 mph    
Max Gust Speed 28 mph    
Visibility 10 miles    
Events      
Averages and records for this station are not official NWS values.
T = Trace of Precipitation, MM = Missing Value Source: NWS Daily Summary

Daily Weather History Graph

Daily Weather History Graph

Search for Another Location

Airport:

Trip Planner

Search our weather history database for the weather conditions in past years. The results will help you decide how hot, cold, wet, or windy it might be!

Date:

Astronomy

Apr. 13, 2014 Rise Set
Actual Time 6:14 AM EDT 7:27 PM EDT
Civil Twilight 5:46 AM EDT 7:56 PM EDT
Nautical Twilight 5:12 AM EDT 8:30 PM EDT
Astronomical Twilight 4:37 AM EDT 9:05 PM EDT
Moon 6:02 PM EDT (4/13) 5:12 AM EDT (4/13)
Length of Visible Light 14h 09m
Length of Day
13h 13m
Waxing Gibbous, 97% of the Moon is Illuminated
Apr 13
Waxing Gibbous
Apr 15
Full
Apr 22
Last Quarter
Apr 29
New
May 6
First Quarter

Hourly Weather History & Observations

Time (EDT) Temp. Windchill Dew Point Humidity Pressure Visibility Wind Dir Wind Speed Gust Speed Precip Events Conditions
12:53 AM 37.9 °F - 32.0 °F 79% 30.25 in 10.0 mi Calm Calm - N/A   Clear
1:53 AM 35.1 °F - 30.0 °F 82% 30.25 in 10.0 mi Calm Calm - N/A   Clear
2:53 AM 33.1 °F - 28.9 °F 85% 30.24 in 10.0 mi Calm Calm - N/A   Clear
3:53 AM 32.0 °F 28.7 °F 28.0 °F 85% 30.25 in 10.0 mi NE 3.5 mph - N/A   Clear
4:53 AM 35.1 °F - 30.0 °F 82% 30.24 in 10.0 mi Calm Calm - N/A   Mostly Cloudy
5:53 AM 44.1 °F - 39.9 °F 85% 30.25 in 10.0 mi Calm Calm - N/A   Overcast
6:53 AM 46.0 °F 44.8 °F 42.1 °F 86% 30.24 in 10.0 mi SE 3.5 mph - N/A   Scattered Clouds
7:53 AM 52.0 °F - 45.0 °F 77% 30.24 in 10.0 mi SE 9.2 mph - N/A   Mostly Cloudy
8:53 AM 55.0 °F - 45.0 °F 69% 30.22 in 10.0 mi SSE 12.7 mph 21.9 mph N/A   Clear
9:21 AM 55.4 °F - 44.6 °F 67% 30.21 in 10.0 mi SSE 13.8 mph 25.3 mph N/A   Mostly Cloudy
9:41 AM 55.4 °F - 46.4 °F 72% 30.22 in 10.0 mi SSE 11.5 mph 20.7 mph N/A   Overcast
9:53 AM 55.9 °F - 46.9 °F 72% 30.22 in 10.0 mi SSE 13.8 mph 21.9 mph N/A   Mostly Cloudy
10:29 AM 57.2 °F - 46.4 °F 67% 30.21 in 10.0 mi South 15.0 mph 24.2 mph N/A   Mostly Cloudy
10:37 AM 57.2 °F - 46.4 °F 67% 30.21 in 10.0 mi SSE 13.8 mph 25.3 mph N/A   Scattered Clouds
10:53 AM 60.1 °F - 48.0 °F 64% 30.20 in 10.0 mi SSE 17.3 mph 23.0 mph N/A   Partly Cloudy
11:53 AM 59.0 °F - 48.0 °F 67% 30.18 in 10.0 mi South 17.3 mph 27.6 mph N/A   Clear
12:53 PM 57.9 °F - 48.0 °F 70% 30.17 in 10.0 mi South 18.4 mph 26.5 mph N/A   Clear
1:53 PM 61.0 °F - 48.9 °F 64% 30.15 in 10.0 mi SSW 12.7 mph 26.5 mph N/A   Clear
2:53 PM 57.9 °F - 48.0 °F 70% 30.13 in 10.0 mi SSW 12.7 mph 20.7 mph N/A   Clear
3:53 PM 59.0 °F - 48.0 °F 67% 30.09 in 10.0 mi SSW 10.4 mph 19.6 mph N/A   Clear
4:53 PM 60.1 °F - 46.9 °F 62% 30.08 in 10.0 mi SSW 11.5 mph 21.9 mph N/A   Clear
5:53 PM 55.9 °F - 46.0 °F 69% 30.08 in 10.0 mi South 12.7 mph 21.9 mph N/A   Clear
6:53 PM 55.0 °F - 48.0 °F 77% 30.09 in 10.0 mi SSW 9.2 mph 20.7 mph N/A   Clear
8:53 PM 54.0 °F - 48.9 °F 83% 30.10 in 10.0 mi SW 11.5 mph 19.6 mph N/A   Clear
9:53 PM 53.1 °F - 48.9 °F 86% 30.10 in 10.0 mi SSW 10.4 mph 18.4 mph N/A   Clear
10:53 PM 52.0 °F - 48.0 °F 86% 30.10 in 9.0 mi SSW 11.5 mph 17.3 mph N/A   Clear
11:53 PM 52.0 °F - 48.0 °F 86% 30.09 in 9.0 mi SW 8.1 mph - N/A   Clear